Location: St. Louis
(38.6270°N, 90.1994°W)
Time: 20:58:24
(UTC-05:00)

Kosmos-337 - Visible Passes

Search period start: 30 June 2022 00:00
Search period end: 10 July 2022 00:00
Orbit: 1467 x 1552 km, 74.0° (Epoch: 30 June)

Date Brightness Start Highest point End Pass type
(mag) Time Alt. Az. Time Alt. Az. Time Alt. Az.
30 Jun ? 00:27:56 10° NNE 00:32:32 14° NE 00:37:06 10° ENE visible
30 Jun ? 02:24:11 10° NNW 02:33:19 64° ENE 02:41:51 12° SSE visible
30 Jun ? 04:23:54 10° NW 04:31:10 28° W 04:38:00 11° SW visible
01 Jul ? 01:38:38 10° N 01:47:09 40° ENE 01:55:30 10° SE visible
01 Jul ? 03:37:15 10° NNW 03:45:49 47° W 03:51:55 20° SSW visible
02 Jul ? 00:53:23 10° N 01:00:41 26° NE 01:07:53 10° ESE visible
02 Jul ? 02:51:06 10° NNW 03:00:14 76° WSW 03:06:00 26° S visible
02 Jul ? 04:53:40 10° WNW 04:57:09 13° W 05:00:38 10° WSW visible
03 Jul ? 00:08:37 10° N 00:13:53 16° NE 00:19:05 10° E visible
03 Jul ? 02:05:14 10° NNW 02:14:25 70° ENE 02:20:12 25° SSE visible
03 Jul ? 04:05:16 10° NW 04:12:05 24° W 04:16:24 17° SW visible
04 Jul ? 01:19:37 10° N 01:28:19 45° ENE 01:34:31 19° SE visible
04 Jul ? 03:18:27 10° NNW 03:26:48 42° W 03:30:43 28° SW visible
05 Jul ? 00:34:17 10° N 00:41:56 28° NE 00:48:54 12° ESE visible
05 Jul ? 02:32:12 10° NNW 02:41:16 68° WSW 02:45:06 38° S visible
05 Jul ? 04:36:24 10° WNW 04:38:00 11° W 04:39:36 10° W visible
05 Jul ? 23:49:22 10° N 23:55:12 18° NE 00:00:57 10° E visible
06 Jul ? 01:46:17 10° NNW 01:55:30 78° ENE 01:59:35 38° SSE visible
06 Jul ? 03:46:42 10° NW 03:53:00 21° W 03:55:47 18° WSW visible
06 Jul ? 23:06:01 10° NNE 23:08:05 11° NE 23:10:08 10° NE visible
07 Jul ? 01:00:37 10° N 01:09:28 49° ENE 01:14:06 28° ESE visible
07 Jul ? 02:59:41 10° NW 03:07:45 37° W 03:10:19 32° SW visible
08 Jul ? 00:15:13 10° N 00:23:08 31° ENE 00:28:41 18° ESE visible
08 Jul ? 02:13:20 10° NNW 02:22:16 61° WSW 02:24:54 46° SSW visible
08 Jul ? 23:30:11 10° N 23:36:29 20° NE 23:42:43 10° E visible
09 Jul ? 01:27:21 10° NNW 01:36:34 85° ENE 01:39:32 49° SSE visible
09 Jul ? 03:28:14 10° NW 03:33:53 19° W 03:35:45 17° WSW visible
09 Jul ? 22:46:08 10° NNE 22:49:28 12° NE 22:52:47 10° ENE visible
